www.pogodaiklimat.ru

Погода и климат >> Архив погоды >> Пакистан >> Бахавалпур


ПОГОДА в Бахавалпуре

  • Прогноз погоды в Бахавалпуре
  • Монитор погоды в Бахавалпуре

АРХИВ ПОГОДЫ в Бахавалпуре

Время (UTC), дата Ветер
(напр.,м/с)
 
Видим.   Явления Облачность Т
(С)
Тd
(С)
f
(%)
Тe
(С)
Тes
(С)
Комфортность P
(гПа)
Po
(гПа)
Тmin
(С)
Tmax
(С)
R
(мм)
R24
(мм)
S
(см)
00 15.09 С 1 1000 м дым 3/0
[Ac trans]
+28.0 +23.7 77 +38 +38 очень
душно
1002.2 989.9
03 15.09 С 1 2000 м дым 3/0
[Ac trans]
+30.0 +25.8 78 +45 +48 опасность
перегрева
1003.1 990.9 +27.9
06 15.09 штиль 0 4000 м дым 3/0
[Ac trans]
+35.0 +26.1 60 +51 +68 опасность
перегрева
1003.8 1000.0
09 15.09 С 1 4000 м дым 3/0
[Ac trans]
+38.0 +26.4 52 +54 +67 опасность
перегрева
1001.9 989.5
12 15.09 штиль 0 4000 м дым ясно +38.0 +25.6 49 +52 +54 опасность
перегрева
1000.3 988.4 +39.1
15 15.09 штиль 0 2000 м дым ясно +33.0 +26.1 67 +49 +49 опасность
перегрева
1001.0 1000.0
18 15.09 штиль 0 2000 м дым ясно +30.0 +25.1 75 +43 +43 опасность
перегрева
1002.7 1000.0
21 15.09 С 1 2000 м дымка ясно +28.5 +25.0 81 +41 +41 опасность
перегрева
1001.6 1000.0
00 16.09 ЮЗ 1 1000 м дымка ясно +28.0 +24.4 81 +39 +39 очень
душно
1000.4 988.1
03 16.09 ЮЗ 1 2000 м дым ясно +29.5 +24.5 75 +42 +46 опасность
перегрева
1002.1 989.1 +27.9
06 16.09 ЮЗ 2 4000 м дым ясно +34.5 +25.5 60 +49 +66 опасность
перегрева
1001.8 1000.0
09 16.09 З 2 4000 м мгла ясно +38.5 +23.8 43 +49 +63 опасность
перегрева
999.6 1000.0
12 16.09 ЮЗ 2 4000 м мгла ясно +37.0 +23.6 46 +47 +49 опасность
перегрева
998.2 986.2 +38.9
15 16.09 штиль 0 2000 м дым ясно +33.5 +25.1 62 +48 +48 опасность
перегрева
998.4 1000.0
18 16.09 штиль 0 2000 м дым ясно +30.5 +24.9 72 +44 +44 опасность
перегрева
999.3 1000.0
21 16.09 штиль 0 2000 м дым ясно +29.0 +24.8 78 +41 +41 опасность
перегрева
998.8 1000.0
00 17.09 ЮЗ 1 2000 м дым ясно +28.0 +23.7 77 +38 +38 очень
душно
998.4 986.1
03 17.09 ЮЗ 2 2000 м дым ясно +28.5 +24.2 78 +40 +43 очень
душно
1000.9 988.7 +27.1
06 17.09 ЮЗ 2 4000 м дым ясно +33.5 +25.1 62 +48 +64 опасность
перегрева
1002.7 1000.0
09 17.09 ЮЗ 2 4000 м мгла ясно +37.5 +24.2 47 +49 +63 опасность
перегрева
1001.3 1000.0
12 17.09 штиль 0 4000 м мгла ясно +37.5 +25.0 49 +51 +53 опасность
перегрева
999.7 987.9 +37.9
15 17.09 штиль 0 2000 м дым ясно +33.0 +26.1 67 +49 +49 опасность
перегрева
1001.1 988.6
18 17.09 штиль 0 4000 м дым ясно +31.5 +26.0 73 +47 +47 опасность
перегрева
1001.7 1000.0
21 17.09 штиль 0 2000 м дым ясно +30.0 +25.8 78 +45 +45 опасность
перегрева
1002.6 1000.0
00 18.09 З 1 2000 м дым ясно +28.5 +24.2 78 +40 +40 очень
душно
1002.7 990.5
03 18.09 штиль 0 2000 м дым ясно +29.0 +24.0 74 +40 +45 очень
душно
1004.9 992.8 +27.3
06 18.09 З 1 2000 м дым ясно +33.5 +25.9 65 +49 +67 опасность
перегрева
1006.2 1000.0
09 18.09 З 2 4000 м дым ясно +37.0 +26.0 53 +52 +65 опасность
перегрева
1005.3 992.9
12 18.09 штиль 0 4000 м мгла ясно +37.5 +24.2 47 +49 +52 опасность
перегрева
1003.7 991.8 +38.5
15 18.09 штиль 0 2000 м дым ясно +33.5 +25.1 62 +48 +48 опасность
перегрева
1004.3 1000.0
18 18.09 штиль 0 2000 м дым ясно +31.0 +25.4 72 +45 +45 опасность
перегрева
1005.2 1000.0
21 18.09 штиль 0 2000 м дым ясно +29.5 +25.3 78 +43 +43 опасность
перегрева
1004.8 992.1
00 19.09 штиль 0 2000 м дымка ясно +28.0 +24.4 81 +39 +39 очень
душно
1004.5 992.2
03 19.09 штиль 0 2000 м дымка ясно +29.0 +25.5 81 +43 +47 опасность
перегрева
1006.6 994.3 +27.7
06 19.09 В 1 2000 м дым ясно +35.0 +25.3 57 +49 +68 опасность
перегрева
1007.2 1000.0
09 19.09 СВ 2 4000 м мгла ясно +37.0 +24.4 49 +49 +64 опасность
перегрева
1005.7 1000.0
12 19.09 4000 м мгла ясно +37.0 +24.4 49 1004.4 992.4 +37.8
15 19.09 СВ 1 2000 м дым ясно +32.0 +25.8 70 +47 +47 опасность
перегрева
1005.2 1000.0
18 19.09 СВ 2 4000 м дым ясно +30.0 +24.3 72 +42 +42 опасность
перегрева
1005.7 1000.0
21 19.09 В 1 4000 м дым ясно +28.5 +23.5 74 +39 +39 очень
душно
1005.9 1000.0
00 20.09 В 1 2000 м дым ясно +27.0 +22.6 77 +36 +36 очень
душно
1005.7 993.3
03 20.09 ЮВ 1 2000 м дым ясно +29.0 +23.2 71 +39 +43 очень
душно
1006.7 994.5 +26.9
06 20.09 Ю 1 2000 м дым ясно +35.0 +24.5 55 +48 +65 опасность
перегрева
1007.1 994.6
09 20.09 СВ 2 4000 м мгла 3/3 1200 м
[Sc diur, vesp]
+36.5 +23.8 48 +47 +57 опасность
перегрева
1005.2 1000.0
12 20.09 СВ 2 2000 м дым 3/0
[Ac trans]
+36.0 +24.9 53 +49 +51 опасность
перегрева
1003.1 991.1 +37.0
15 20.09 СВ 2 2000 м дым 4/0
[Ac trans]
+33.0 +24.6 61 +46 +46 опасность
перегрева
1005.4 1000.0
18 20.09 СВ 2 2000 м дым 4/0
[Ac trans]
+30.0 +23.5 68 +41 +41 опасность
перегрева
1006.9 1000.0
21 20.09 СВ 3 2000 м дым 4/0
[Ac trans]
+27.5 +23.1 77 +37 +37 очень
душно
1006.5 993.7
00 21.09 штиль 0 1000 м дымка 3/0
[Ac trans]
+26.0 +23.1 84 +35 +35 очень
душно
1005.7 993.2
03 21.09 штиль 0 1000 м дымка 3/0
[Ac trans]
+27.5 +24.7 85 +39 +43 очень
душно
1007.0 994.5 +25.9
06 21.09 штиль 0 2000 м дым 4/0
[Ac trans]
+34.0 +24.9 59 +47 +63 опасность
перегрева
1007.7 1000.0
09 21.09 СВ 1 4000 м дым 4/4 300 м
[Sc diur, vesp]
+36.0 +24.9 53 +49 +58 опасность
перегрева
1005.2 1000.0
12 21.09 СВ 2 4000 м дым ясно +34.0 +23.3 54 +45 +46 опасность
перегрева
1003.0 991.0 +36.1
15 21.09 штиль 0 2000 м дым ясно +31.0 +23.1 63 +41 +41 опасность
перегрева
1004.1 1000.0
18 21.09 штиль 0 2000 м дым ясно +29.0 +23.2 71 +39 +39 очень
душно
1006.1 993.3

 

Местоположение метеостанции Бахавалпур (Пакистан): широта 29.40 долгота 71.78 высота над уровнем моря 113 м.

В архиве по умолчанию представлена погода в Бахавалпуре за последнюю неделю. Архивные данные за месяц целиком и за предыдущие месяцы, начиная с января 2011 года, Вы можете получить, выбрав интересующий диапазон дат из раскрывающегося списка и нажав кнопку "Ввод!".


*Определитесь, кто Вы:
робот инопланетянин человек

Внимание! Время в таблицах - всемирное. Для получения местного времени необходимо прибавить поправку, которая равна 5 ч.

Смотрите также архив погоды в соседних городах и на ближайших метеорологических станциях:

Погода в Мултане (Пакистан) (95 км)
Погода в Ханевале (Пакистан) (101 км)
Погода в Дера Гази Хан (Пакистан) (133 км)
Погода в Ханпуре (Пакистан) (136 км)
Погода в Кот Адду (Пакистан) (142 км)
Погода в Бахавалнагаре (Пакистан) (155 км)
Погода на Авиабазе Raifiqui (Пакистан) (159 км)
Погода в Рахим Яр Хан (Пакистан) (178 км)
Погода в Сахивале (Пакистан) (184 км)
Погода в Тоба Тек Сингх (Пакистан) (188 км)

Пояснения к столбцам:

Ветер - указаны скорость ветра в м/с - средняя за 10 мин, порывы в срок и между сроками (в фигурных скобках) и направление, откуда дует ветер: С - северный, СВ - северо-восточный, В - восточный, ЮВ - юго-восточный, Ю - южный, ЮЗ - юго-западный, З - западный, СЗ - северо-западный.
Видимость - горизонтальная дальность видимости в метрах или километрах. При видимости от 1 до 10 км при отсутствии осадков обычно наблюдается дымка, при ухудшении видимости до 1 км и менее - туман. В сухую погоду видимость может ухудшаться дымом, пылью или мглою.
Явления - указаны атмосферные явления, наблюдавшиеся в срок или в последний час перед сроком; фигурными скобками обозначены явления, наблюдавшиеся между сроками (за 1-3 часа до срока); квадратными скобками обозначены град или гололедные отложения с указанием их диаметра в мм.
Облачность - указаны через наклонную черту общая и нижняя облачность в баллах и высота нижней границы облаков в метрах; квадратными скобками обозначены формы облаков: Ci - перистые, Cs - перисто-слоистые, Cc - перисто-кучевые, Ac - высококучевые, As - высокослоистые, Sc - слоисто-кучевые, Ns - слоисто-дождевые, Cu - кучевые, Cb - кучево-дождевые. Подробнее классификацию облаков см. в Атласе облаков (PDF).
T - Температура воздуха - температура, измеренная на высоте 2 м над землей.
Td - Температура точки росы - температура, при понижении до которой содержащийся в воздухе водяной пар достигнет насыщения.
f - Относительная влажность воздуха - влажноcть воздуха, измеренная на высоте 2 м над землей.
Te - Эффективная температура - температура, которую ощущает одетый по сезону человек в тени. Характеристика душности погоды. При расчете учитывается влияние влажности воздуха и скорости ветра на теплоощущения человека.
Tes - Эффективная температура на солнце - температура, которую ощущает человек, с поправкой на солнечный нагрев. Характеристика знойности погоды. Зависит от высоты солнца над горизонтом, облачности и скорости ветра. Ночью, в пасмурную погоду, а также при ветре 12 м/с и более поправка равна нулю.
P - Атмосферное давление - приведенное к уровню моря атмосферное давление.
Po - Атмосферное давление - измеренное на уровне метеостанции атмосферное давление.
Tmin - Минимальная температура - минимум температуры воздуха на высоте 2 м над землей.
Tmax - Максимальная температура - максимум температуры воздуха на высоте 2 м над землей.
R - Количество осадков - Количество выпавших осадков за период времени, мм. При наведении курсора мыши на число - период времени, за который выпало указанное количество осадков.
R24 - Количество осадков - Количество выпавших осадков за 24 часа, мм.
S - Снежный покров - Высота снежного покрова, см. При наведении курсора мыши на число - состояние снежного покрова и степень покрытия местности в баллах.